TimeCDT,TemperatureF,Dew PointF,Humidity,Sea Level PressureIn,VisibilityMPH,Wind Direction,Wind SpeedMPH,Gust SpeedMPH,PrecipitationIn,Events,Conditions,WindDirDegrees,DateUTC
12:15 AM,56.3,47.3,72,30.00,10.0,South,3.5,-,N/A,,Mostly Cloudy,170,2013-10-18 05:15:00
12:35 AM,55.6,47.8,75,30.00,10.0,South,5.8,-,N/A,,Mostly Cloudy,180,2013-10-18 05:35:00
12:55 AM,55.4,48.0,76,30.00,10.0,Calm,Calm,-,N/A,,Scattered Clouds,0,2013-10-18 05:55:00
1:15 AM,55.6,48.2,76,30.00,10.0,SSE,4.6,-,N/A,,Mostly Cloudy,160,2013-10-18 06:15:00
1:35 AM,56.3,48.2,74,30.00,10.0,South,5.8,-,N/A,,Mostly Cloudy,180,2013-10-18 06:35:00
1:55 AM,56.8,48.4,73,29.99,10.0,South,6.9,-,N/A,,Mostly Cloudy,180,2013-10-18 06:55:00
2:15 AM,57.2,48.7,73,29.99,10.0,South,5.8,-,N/A,,Mostly Cloudy,180,2013-10-18 07:15:00
2:35 AM,57.2,49.1,74,29.98,10.0,South,5.8,-,N/A,,Mostly Cloudy,180,2013-10-18 07:35:00
2:55 AM,56.8,49.1,75,29.99,10.0,South,3.5,-,N/A,,Mostly Cloudy,180,2013-10-18 07:55:00
3:15 AM,56.7,48.9,75,29.99,10.0,South,3.5,-,N/A,,Mostly Cloudy,190,2013-10-18 08:15:00
3:35 AM,56.5,48.6,75,29.99,10.0,South,3.5,-,N/A,,Mostly Cloudy,180,2013-10-18 08:35:00
3:55 AM,56.1,48.6,76,29.98,10.0,South,3.5,-,N/A,,Mostly Cloudy,190,2013-10-18 08:55:00
4:15 AM,55.8,48.4,76,29.97,10.0,South,4.6,-,N/A,,Scattered Clouds,180,2013-10-18 09:15:00
4:35 AM,54.9,48.6,79,29.96,10.0,Calm,Calm,-,N/A,,Scattered Clouds,0,2013-10-18 09:35:00
4:55 AM,55.8,48.6,77,29.96,10.0,Calm,Calm,-,N/A,,Mostly Cloudy,0,2013-10-18 09:55:00
5:15 AM,55.6,49.8,81,29.96,10.0,SSE,4.6,-,N/A,,Overcast,160,2013-10-18 10:15:00
5:35 AM,55.4,50.2,83,29.95,10.0,South,4.6,-,N/A,,Mostly Cloudy,170,2013-10-18 10:35:00
5:55 AM,56.1,50.0,80,29.95,10.0,SSE,5.8,-,N/A,,Mostly Cloudy,160,2013-10-18 10:55:00
6:15 AM,56.3,50.5,81,29.95,10.0,SSE,6.9,-,N/A,,Overcast,150,2013-10-18 11:15:00
6:35 AM,56.5,50.5,80,29.95,10.0,South,5.8,-,N/A,,Overcast,180,2013-10-18 11:35:00
6:55 AM,56.8,50.4,79,29.96,10.0,South,6.9,-,N/A,,Overcast,180,2013-10-18 11:55:00
7:15 AM,56.5,50.9,82,29.96,10.0,South,5.8,-,N/A,,Overcast,180,2013-10-18 12:15:00
7:35 AM,56.5,51.4,83,29.96,10.0,SSE,6.9,-,N/A,,Overcast,160,2013-10-18 12:35:00
7:55 AM,56.3,51.8,85,29.96,10.0,SSE,5.8,-,N/A,,Overcast,150,2013-10-18 12:55:00
8:15 AM,57.2,51.3,81,29.97,10.0,SE,3.5,-,N/A,,Overcast,140,2013-10-18 13:15:00
8:35 AM,58.1,51.1,77,29.97,10.0,SE,5.8,-,N/A,,Overcast,130,2013-10-18 13:35:00
8:55 AM,57.9,51.3,78,29.98,10.0,SSE,8.1,-,N/A,,Overcast,150,2013-10-18 13:55:00
9:15 AM,58.1,52.2,81,29.98,10.0,SSE,6.9,-,N/A,,Overcast,150,2013-10-18 14:15:00
9:35 AM,58.3,52.7,82,29.99,10.0,SSE,5.8,-,N/A,,Overcast,150,2013-10-18 14:35:00
9:55 AM,58.6,52.3,80,29.99,10.0,SE,8.1,-,N/A,,Overcast,140,2013-10-18 14:55:00
10:15 AM,59.2,52.5,79,29.99,10.0,SSE,8.1,-,N/A,,Overcast,160,2013-10-18 15:15:00
10:35 AM,59.4,52.3,78,29.99,10.0,SSE,5.8,-,N/A,,Overcast,160,2013-10-18 15:35:00
10:55 AM,59.9,52.5,77,29.99,10.0,South,6.9,-,N/A,,Overcast,170,2013-10-18 15:55:00
11:15 AM,60.3,52.5,76,29.99,10.0,South,5.8,-,N/A,,Overcast,180,2013-10-18 16:15:00
11:35 AM,61.0,52.9,75,29.98,10.0,SSE,5.8,-,N/A,,Overcast,160,2013-10-18 16:35:00
11:55 AM,61.7,53.1,73,29.98,10.0,South,5.8,-,N/A,,Overcast,190,2013-10-18 16:55:00
12:15 PM,62.6,53.6,72,29.97,10.0,South,6.9,-,N/A,,Overcast,170,2013-10-18 17:15:00
12:35 PM,63.7,54.3,72,29.96,10.0,South,6.9,-,N/A,,Overcast,180,2013-10-18 17:35:00
12:55 PM,64.4,54.7,71,29.96,10.0,South,6.9,-,N/A,,Overcast,180,2013-10-18 17:55:00
1:15 PM,65.5,55.6,70,29.95,10.0,SSW,6.9,-,N/A,,Overcast,200,2013-10-18 18:15:00
1:35 PM,65.5,55.4,70,29.94,10.0,South,3.5,-,N/A,,Overcast,190,2013-10-18 18:35:00
1:55 PM,66.2,55.9,69,29.93,10.0,SE,5.8,-,N/A,,Overcast,130,2013-10-18 18:55:00
2:15 PM,66.6,56.5,70,29.92,10.0,SSE,4.6,-,N/A,,Overcast,150,2013-10-18 19:15:00
2:35 PM,67.1,56.5,69,29.92,10.0,ESE,4.6,-,N/A,,Overcast,120,2013-10-18 19:35:00
2:55 PM,68.0,56.7,67,29.91,10.0,SSE,3.5,-,N/A,,Overcast,160,2013-10-18 19:55:00
3:15 PM,68.9,56.8,65,29.91,10.0,Calm,Calm,-,N/A,,Overcast,0,2013-10-18 20:15:00
3:35 PM,70.0,57.9,65,29.91,10.0,Calm,Calm,-,N/A,,Overcast,0,2013-10-18 20:35:00
3:55 PM,71.1,57.9,63,29.91,10.0,Calm,Calm,-,N/A,,Mostly Cloudy,0,2013-10-18 20:55:00
4:15 PM,70.5,58.3,65,29.91,10.0,Calm,Calm,-,N/A,,Overcast,0,2013-10-18 21:15:00
4:35 PM,71.4,58.5,64,29.91,10.0,East,3.5,-,N/A,,Overcast,100,2013-10-18 21:35:00
4:55 PM,70.3,58.3,66,29.92,10.0,NE,3.5,-,N/A,,Scattered Clouds,40,2013-10-18 21:55:00
5:15 PM,71.1,58.3,64,29.93,10.0,Calm,Calm,-,N/A,,Mostly Cloudy,0,2013-10-18 22:15:00
5:35 PM,70.7,59.2,67,29.93,10.0,ENE,5.8,-,N/A,,Overcast,70,2013-10-18 22:35:00
5:55 PM,70.2,58.8,67,29.93,10.0,ENE,4.6,-,N/A,,Mostly Cloudy,70,2013-10-18 22:55:00
6:15 PM,69.4,58.8,69,29.93,10.0,East,3.5,-,N/A,,Scattered Clouds,80,2013-10-18 23:15:00
6:35 PM,68.2,59.2,73,29.93,10.0,ESE,6.9,-,N/A,,Scattered Clouds,110,2013-10-18 23:35:00
6:55 PM,67.1,59.2,76,29.95,10.0,ENE,4.6,-,N/A,,Mostly Cloudy,60,2013-10-18 23:55:00
7:15 PM,66.4,58.5,76,29.99,10.0,NNW,27.6,32.2,N/A,,Mostly Cloudy,340,2013-10-19 00:15:00
7:35 PM,56.3,50.7,82,30.02,10.0,North,33.4,40.3,N/A,,Overcast,360,2013-10-19 00:35:00
7:55 PM,52.5,47.5,83,30.05,10.0,North,31.1,40.3,N/A,,Overcast,360,2013-10-19 00:55:00
8:15 PM,50.7,46.0,84,30.07,10.0,North,28.8,35.7,N/A,,Overcast,360,2013-10-19 01:15:00
8:35 PM,49.5,45.0,84,30.08,10.0,North,26.5,36.8,N/A,,Overcast,360,2013-10-19 01:35:00
8:55 PM,48.2,43.7,84,30.11,10.0,North,25.3,36.8,N/A,,Overcast,360,2013-10-19 01:55:00
9:15 PM,47.7,43.0,84,30.11,10.0,North,26.5,32.2,N/A,,Overcast,360,2013-10-19 02:15:00
9:35 PM,47.3,42.8,84,30.12,10.0,North,20.7,26.5,N/A,,Overcast,360,2013-10-19 02:35:00
9:55 PM,47.3,41.9,82,30.13,10.0,North,20.7,28.8,N/A,,Overcast,360,2013-10-19 02:55:00
10:15 PM,47.3,41.9,82,30.14,10.0,North,20.7,26.5,N/A,,Overcast,360,2013-10-19 03:15:00
10:35 PM,46.6,40.5,79,30.15,10.0,North,23.0,31.1,N/A,,Overcast,10,2013-10-19 03:35:00
10:55 PM,46.6,39.9,78,30.16,10.0,North,24.2,27.6,N/A,,Overcast,10,2013-10-19 03:55:00
11:15 PM,46.4,39.6,77,30.17,10.0,North,19.6,27.6,N/A,,Overcast,10,2013-10-19 04:15:00
11:35 PM,46.0,39.4,78,30.17,10.0,North,17.3,24.2,N/A,,Overcast,10,2013-10-19 04:35:00
11:55 PM,45.7,39.4,79,30.18,10.0,North,21.9,28.8,N/A,,Overcast,360,2013-10-19 04:55:00